KIRCHDORF Weather Reports


time (UTC)temp
F
wind
direction
speed
knots
gust
knots
rain 1hr
in
rain 24hr
in
rain mn
in
humidity
%
barometer
mb
20260506090211 59 196 2.6 0.0 0.00 0.00 0.00 76 1006.8
20260506083211 56 355 1.7 0.0 0.00 0.00 0.00 81 1006.6
20260506080212 55 32 2.6 0.0 0.00 0.00 0.00 82 1006.6
20260506073211 55 219 0.9 0.0 0.00 0.00 0.00 84 1006.9
20260506070212 54 204 3.5 0.0 0.00 0.00 0.00 86 1007.1
20260506060210 51 209 2.6 0.0 0.00 0.00 0.00 92 1006.9
20260506050211 48 129 2.6 0.0 0.00 0.00 0.00 95 1007.3
20260506043211 47 182 6.1 0.0 0.00 0.00 0.00 95 1007.5
20260506040211 47 232 1.7 0.0 0.00 0.00 0.00 94 1007.8
20260506033211 47 181 5.2 0.0 0.00 0.00 0.00 95 1008.0
20260506030212 47 200 5.2 0.0 0.00 0.00 0.00 95 1008.3
20260506023211 48 179 5.2 0.0 0.00 0.00 0.00 95 1008.4
20260506020212 49 160 6.1 0.0 0.00 0.00 0.00 95 1008.7
20260506013211 49 184 5.2 0.0 0.00 0.00 0.00 95 1008.8
20260506010212 50 175 6.1 0.0 0.00 0.00 0.00 95 1009.1
20260506003209 50 225 3.5 0.0 0.00 0.00 0.00 96 1009.0
20260506000211 49 194 6.1 0.0 0.00 0.00 0.00 96 1009.2
20260505233209 49 185 6.1 0.0 0.00 0.00 0.00 96 1009.4
20260505230209 49 200 4.3 0.0 0.00 0.00 0.00 95 1009.6
20260505223210 50 105 1.7 0.0 0.00 0.00 0.00 94 1009.7
20260505213211 51 169 4.3 0.0 0.00 0.00 0.04 93 1009.5
20260505210215 53 200 4.3 0.0 0.00 0.00 0.04 91 1009.5
20260505203209 53 240 7.0 0.0 0.00 0.00 0.04 89 1009.4
20260505200210 56 171 11.3 0.0 0.00 0.00 0.01 81 1009.5
20260505193209 59 256 14.8 0.0 0.00 0.00 0.01 76 1009.1
20260505190215 59 244 10.4 0.0 0.00 0.00 0.01 75 1008.4
20260505183212 59 215 6.1 0.0 0.00 0.00 0.01 76 1008.2
20260505180211 60 254 3.5 0.0 0.00 0.00 0.01 74 1007.7
20260505173210 60 306 3.5 0.0 0.00 0.00 0.01 75 1007.4
20260505170210 60 340 1.7 0.0 0.00 0.00 0.01 75 1006.9
20260505163211 60 59 3.5 0.0 0.00 0.00 0.01 74 1007.1
20260505153210 62 349 8.7 0.0 0.00 0.00 0.01 69 1007.3
20260505150216 62 347 8.7 0.0 0.00 0.00 0.01 73 1007.1
20260505140210 62 344 7.0 0.0 0.00 0.00 0.01 78 1007.2
20260505130210 60 325 8.7 0.0 0.00 0.00 0.01 87 1007.9
20260505123210 59 349 6.1 0.0 0.00 0.00 0.01 88 1008.1
20260505120210 61 286 9.6 0.0 0.00 0.00 0.00 82 1008.3
20260505113210 65 259 10.4 0.0 0.00 0.00 0.00 70 1008.0
20260505110211 66 318 7.8 0.0 0.00 0.00 0.00 65 1007.6
20260505100212 64 0 2.6 0.0 0.00 0.00 0.00 61 1007.7
20260505093212 66 276 2.6 0.0 0.00 0.00 0.00 62 1007.8